Wetterdaten: Sonntag, 22.03.2015
Datum Zeit Temp. A. Feuchte A. Luftdruck Regen Wind Richtung Richtung Sonnenschein ET UV Solar Taupunkt Windchill Windben Empfang
22.03.2015 00:00 6,2 C 87 % 1013,4 hPa 0,3 l/m 0,0 km/h (0 Bft) S-SW 204 0 min 0,000 mm 0,0 UV-I 0 W/m 4,2 C 6,2 C 0,0 km/h (0 Bft) 0,00 %
22.03.2015 00:15 6,1 C 88 % 1013,4 hPa 0,3 l/m 0,4 km/h (0 Bft) SW 220 0 min 0,000 mm 0,0 UV-I 0 W/m 4,3 C 6,1 C 4,0 km/h (1 Bft) 0,00 %
22.03.2015 00:30 6,1 C 88 % 1013,5 hPa 0,6 l/m 0,0 km/h (0 Bft) S-SW 210 0 min 0,000 mm 0,0 UV-I 0 W/m 4,3 C 6,1 C 0,0 km/h (0 Bft) 0,00 %
22.03.2015 00:45 6,1 C 89 % 1013,7 hPa 0,3 l/m 0,0 km/h (0 Bft) S 177 0 min 0,000 mm 0,0 UV-I 0 W/m 4,4 C 6,1 C 0,0 km/h (0 Bft) 0,00 %
22.03.2015 01:00 6,1 C 89 % 1013,8 hPa 0,3 l/m 0,0 km/h (0 Bft) SW 228 0 min 0,000 mm 0,0 UV-I 0 W/m 4,4 C 6,1 C 0,0 km/h (0 Bft) 0,00 %
22.03.2015 01:15 6,0 C 89 % 1013,9 hPa 0,0 l/m 0,0 km/h (0 Bft) S-SW 211 0 min 0,000 mm 0,0 UV-I 0 W/m 4,3 C 6,0 C 0,0 km/h (0 Bft) 0,00 %
22.03.2015 01:30 5,8 C 89 % 1014,0 hPa 0,3 l/m 0,0 km/h (0 Bft) W-SW 253 0 min 0,000 mm 0,0 UV-I 0 W/m 4,1 C 5,8 C 0,0 km/h (0 Bft) 0,00 %
22.03.2015 01:45 5,6 C 89 % 1014,2 hPa 0,3 l/m 0,0 km/h (0 Bft) S-SW 197 0 min 0,000 mm 0,0 UV-I 0 W/m 3,9 C 5,6 C 0,0 km/h (0 Bft) 0,00 %
22.03.2015 02:00 5,3 C 90 % 1014,6 hPa 0,3 l/m 3,2 km/h (1 Bft) W-SW 256 0 min 0,000 mm 0,0 UV-I 0 W/m 3,8 C 5,3 C 4,0 km/h (1 Bft) 0,00 %
22.03.2015 02:15 5,2 C 89 % 1014,6 hPa 0,3 l/m 0,7 km/h (0 Bft) SW 221 0 min 0,000 mm 0,0 UV-I 0 W/m 3,5 C 5,2 C 4,0 km/h (1 Bft) 0,00 %
22.03.2015 02:30 5,1 C 90 % 1014,7 hPa 0,3 l/m 0,0 km/h (0 Bft) W-SW 255 0 min 0,000 mm 0,0 UV-I 0 W/m 3,6 C 5,1 C 0,0 km/h (0 Bft) 0,00 %
22.03.2015 02:45 5,0 C 90 % 1014,6 hPa 0,3 l/m 0,0 km/h (0 Bft) N-NW 328 0 min 0,000 mm 0,0 UV-I 0 W/m 3,5 C 5,0 C 0,0 km/h (0 Bft) 0,00 %
22.03.2015 03:00 5,0 C 90 % 1015,0 hPa 0,3 l/m 0,4 km/h (0 Bft) SW 217 0 min 0,000 mm 0,0 UV-I 0 W/m 3,5 C 5,0 C 4,0 km/h (1 Bft) 0,00 %
22.03.2015 03:15 4,9 C 90 % 1015,0 hPa 0,3 l/m 0,0 km/h (0 Bft) SW 221 0 min 0,000 mm 0,0 UV-I 0 W/m 3,4 C 4,9 C 0,0 km/h (0 Bft) 0,00 %
22.03.2015 03:30 4,8 C 90 % 1015,0 hPa 0,3 l/m 0,0 km/h (0 Bft) SW 222 0 min 0,000 mm 0,0 UV-I 0 W/m 3,3 C 4,8 C 0,0 km/h (0 Bft) 0,00 %
22.03.2015 03:45 4,8 C 90 % 1015,1 hPa 0,3 l/m 0,7 km/h (0 Bft) W-SW 237 0 min 0,000 mm 0,0 UV-I 0 W/m 3,3 C 4,8 C 4,0 km/h (1 Bft) 0,00 %
22.03.2015 04:00 4,8 C 91 % 1015,2 hPa 0,3 l/m 0,0 km/h (0 Bft) S-SW 198 0 min 0,000 mm 0,0 UV-I 0 W/m 3,5 C 4,8 C 0,0 km/h (0 Bft) 0,00 %
22.03.2015 04:15 4,8 C 91 % 1015,5 hPa 0,3 l/m 0,0 km/h (0 Bft) W-SW 251 0 min 0,000 mm 0,0 UV-I 0 W/m 3,5 C 4,8 C 0,0 km/h (0 Bft) 0,00 %
22.03.2015 04:30 4,6 C 90 % 1015,8 hPa 0,3 l/m 0,0 km/h (0 Bft) W 276 0 min 0,000 mm 0,0 UV-I 0 W/m 3,1 C 4,6 C 0,0 km/h (0 Bft) 0,00 %
22.03.2015 04:45 4,4 C 91 % 1015,8 hPa 0,0 l/m 0,0 km/h (0 Bft) NO 44 0 min 0,000 mm 0,0 UV-I 0 W/m 3,1 C 4,4 C 0,0 km/h (0 Bft) 0,00 %
22.03.2015 05:00 4,4 C 91 % 1016,0 hPa 0,0 l/m 0,0 km/h (0 Bft) O-NO 62 0 min 0,000 mm 0,0 UV-I 0 W/m 3,1 C 4,4 C 0,0 km/h (0 Bft) 0,00 %
22.03.2015 05:15 4,2 C 91 % 1016,2 hPa 0,3 l/m 0,0 km/h (0 Bft) SO 137 0 min 0,000 mm 0,0 UV-I 0 W/m 2,9 C 4,2 C 0,0 km/h (0 Bft) 0,00 %
22.03.2015 05:30 3,9 C 90 % 1016,4 hPa 0,3 l/m 0,4 km/h (0 Bft) W-SW 252 0 min 0,000 mm 0,0 UV-I 0 W/m 2,4 C 3,9 C 4,0 km/h (1 Bft) 0,00 %
22.03.2015 05:45 3,8 C 89 % 1016,6 hPa 0,3 l/m 0,0 km/h (0 Bft) W-SW 253 0 min 0,000 mm 0,0 UV-I 0 W/m 2,2 C 3,8 C 0,0 km/h (0 Bft) 0,00 %
22.03.2015 06:00 3,7 C 90 % 1017,1 hPa 0,0 l/m 0,0 km/h (0 Bft) S-SW 204 0 min 0,000 mm 0,0 UV-I 0 W/m 2,2 C 3,7 C 0,0 km/h (0 Bft) 0,00 %
22.03.2015 06:15 3,6 C 90 % 1017,2 hPa 0,0 l/m 0,0 km/h (0 Bft) S-SW 206 0 min 0,000 mm 0,0 UV-I 0 W/m 2,1 C 3,6 C 0,0 km/h (0 Bft) 0,00 %
22.03.2015 06:30 3,7 C 90 % 1017,4 hPa 0,3 l/m 0,0 km/h (0 Bft) S 187 0 min 0,000 mm 0,0 UV-I 0 W/m 2,2 C 3,7 C 0,0 km/h (0 Bft) 0,00 %
22.03.2015 06:45 3,6 C 90 % 1017,6 hPa 0,3 l/m 0,0 km/h (0 Bft) N 353 0 min 0,000 mm 0,0 UV-I 0 W/m 2,1 C 3,6 C 0,0 km/h (0 Bft) 0,00 %
22.03.2015 07:00 3,6 C 91 % 1017,9 hPa 0,0 l/m 0,0 km/h (0 Bft) N-NO 13 0 min 0,000 mm 0,0 UV-I 3 W/m 2,3 C 3,6 C 0,0 km/h (0 Bft) 0,00 %
22.03.2015 07:15 3,5 C 91 % 1018,0 hPa 0,3 l/m 0,0 km/h (0 Bft) W-SW 251 0 min 0,000 mm 0,0 UV-I 9 W/m 2,2 C 3,5 C 0,0 km/h (0 Bft) 0,00 %
22.03.2015 07:30 3,5 C 91 % 1018,3 hPa 0,0 l/m 0,0 km/h (0 Bft) W-SW 252 0 min 0,000 mm 0,0 UV-I 34 W/m 2,2 C 3,5 C 0,0 km/h (0 Bft) 0,00 %
22.03.2015 07:45 3,7 C 90 % 1018,5 hPa 0,0 l/m 0,0 km/h (0 Bft) N-NO 15 0 min 0,000 mm 1,0 UV-I 56 W/m 2,2 C 3,7 C 0,0 km/h (0 Bft) 0,00 %
22.03.2015 08:00 3,8 C 90 % 1018,7 hPa 0,3 l/m 0,0 km/h (0 Bft) W-SW 238 0 min 0,000 mm 0,0 UV-I 41 W/m 2,3 C 3,8 C 0,0 km/h (0 Bft) 0,00 %
22.03.2015 08:15 3,9 C 89 % 1018,9 hPa 0,0 l/m 0,0 km/h (0 Bft) S 175 0 min 0,000 mm 1,0 UV-I 46 W/m 2,3 C 3,9 C 0,0 km/h (0 Bft) 0,00 %
22.03.2015 08:30 3,8 C 87 % 1019,1 hPa 0,0 l/m 0,4 km/h (0 Bft) N 354 0 min 0,000 mm 1,0 UV-I 53 W/m 1,8 C 3,8 C 4,0 km/h (1 Bft) 0,00 %
22.03.2015 08:45 3,8 C 85 % 1019,4 hPa 0,0 l/m 0,4 km/h (0 Bft) SO 131 0 min 0,000 mm 0,0 UV-I 45 W/m 1,5 C 3,8 C 4,0 km/h (1 Bft) 0,00 %
22.03.2015 09:00 3,9 C 86 % 1019,4 hPa 0,0 l/m 0,4 km/h (0 Bft) N 355 0 min 0,000 mm 1,0 UV-I 47 W/m 1,8 C 3,9 C 4,0 km/h (1 Bft) 0,00 %
22.03.2015 09:15 4,0 C 85 % 1019,8 hPa 0,0 l/m 0,0 km/h (0 Bft) S-SW 212 0 min 0,000 mm 1,0 UV-I 53 W/m 1,7 C 4,0 C 0,0 km/h (0 Bft) 0,00 %
22.03.2015 09:30 4,0 C 85 % 1019,9 hPa 0,0 l/m 5,8 km/h (2 Bft) O 90 0 min 0,000 mm 1,0 UV-I 50 W/m 1,7 C 4,0 C 7,9 km/h (2 Bft) 0,00 %
22.03.2015 09:45 4,1 C 85 % 1020,2 hPa 0,0 l/m 0,0 km/h (0 Bft) N 352 0 min 0,000 mm 1,0 UV-I 46 W/m 1,8 C 4,1 C 0,0 km/h (0 Bft) 0,00 %
22.03.2015 10:00 4,1 C 84 % 1020,1 hPa 0,0 l/m 0,0 km/h (0 Bft) N 352 0 min 0,000 mm 1,0 UV-I 66 W/m 1,6 C 4,1 C 0,0 km/h (0 Bft) 0,00 %
22.03.2015 10:15 4,4 C 83 % 1020,2 hPa 0,0 l/m 0,4 km/h (0 Bft) O-NO 66 0 min 0,000 mm 1,0 UV-I 90 W/m 1,8 C 4,4 C 4,0 km/h (1 Bft) 0,00 %
22.03.2015 10:30 4,4 C 82 % 1020,1 hPa 0,0 l/m 6,5 km/h (2 Bft) O-NO 63 0 min 0,000 mm 1,0 UV-I 88 W/m 1,6 C 4,3 C 7,9 km/h (2 Bft) 0,00 %
22.03.2015 10:45 4,4 C 82 % 1020,2 hPa 0,0 l/m 7,2 km/h (2 Bft) O 101 0 min 0,000 mm 1,0 UV-I 75 W/m 1,6 C 3,7 C 11,9 km/h (2 Bft) 0,00 %
22.03.2015 11:00 4,5 C 82 % 1020,2 hPa 0,0 l/m 6,5 km/h (2 Bft) O 81 0 min 0,000 mm 1,0 UV-I 81 W/m 1,7 C 4,4 C 7,9 km/h (2 Bft) 0,00 %
22.03.2015 11:15 4,5 C 82 % 1020,1 hPa 0,0 l/m 0,4 km/h (0 Bft) O 84 0 min 0,000 mm 1,0 UV-I 65 W/m 1,7 C 4,5 C 4,0 km/h (1 Bft) 0,00 %
22.03.2015 11:30 4,5 C 82 % 1020,1 hPa 0,0 l/m 0,7 km/h (0 Bft) NO 39 0 min 0,000 mm 1,0 UV-I 64 W/m 1,7 C 4,5 C 4,0 km/h (1 Bft) 0,00 %
22.03.2015 11:45 4,5 C 81 % 1020,2 hPa 0,0 l/m 9,0 km/h (2 Bft) O-NO 61 0 min 0,000 mm 1,0 UV-I 71 W/m 1,5 C 2,3 C 11,9 km/h (2 Bft) 0,00 %
22.03.2015 12:00 4,6 C 81 % 1019,9 hPa 0,0 l/m 3,2 km/h (1 Bft) SW 217 0 min 0,000 mm 1,0 UV-I 88 W/m 1,6 C 4,6 C 7,9 km/h (2 Bft) 0,00 %
22.03.2015 12:15 4,7 C 81 % 1019,9 hPa 0,0 l/m 2,2 km/h (1 Bft) O-SO 112 0 min 0,000 mm 1,0 UV-I 93 W/m 1,7 C 4,7 C 7,9 km/h (2 Bft) 0,00 %
22.03.2015 12:30 4,9 C 81 % 1019,9 hPa 0,0 l/m 2,9 km/h (1 Bft) O 89 0 min 0,000 mm 1,0 UV-I 119 W/m 1,9 C 4,9 C 7,9 km/h (2 Bft) 0,00 %
22.03.2015 12:45 5,1 C 81 % 1019,9 hPa 0,0 l/m 9,7 km/h (2 Bft) O-NO 59 0 min 0,000 mm 1,0 UV-I 126 W/m 2,1 C 2,4 C 15,8 km/h (3 Bft) 0,00 %
22.03.2015 13:00 5,0 C 81 % 1019,9 hPa 0,0 l/m 0,4 km/h (0 Bft) W-SW 256 0 min 0,000 mm 1,0 UV-I 90 W/m 2,0 C 5,0 C 4,0 km/h (1 Bft) 0,00 %
22.03.2015 13:15 5,1 C 81 % 1019,9 hPa 0,0 l/m 4,0 km/h (1 Bft) NO 55 0 min 0,000 mm 1,0 UV-I 102 W/m 2,1 C 5,1 C 7,9 km/h (2 Bft) 0,00 %
22.03.2015 13:30 5,1 C 81 % 1019,9 hPa 0,0 l/m 2,2 km/h (1 Bft) O-NO 60 0 min 0,000 mm 1,0 UV-I 80 W/m 2,1 C 5,1 C 4,0 km/h (1 Bft) 0,00 %
22.03.2015 13:45 5,2 C 81 % 1019,6 hPa 0,0 l/m 6,8 km/h (2 Bft) O-NO 77 0 min 0,000 mm 1,0 UV-I 95 W/m 2,2 C 4,9 C 11,9 km/h (2 Bft) 0,00 %
22.03.2015 14:00 5,2 C 81 % 1019,8 hPa 0,0 l/m 1,4 km/h (1 Bft) O 98 0 min 0,000 mm 1,0 UV-I 91 W/m 2,2 C 5,2 C 4,0 km/h (1 Bft) 0,00 %
22.03.2015 14:15 5,4 C 80 % 1019,7 hPa 0,0 l/m 0,7 km/h (0 Bft) S-SW 206 0 min 0,000 mm 1,0 UV-I 113 W/m 2,2 C 5,4 C 4,0 km/h (1 Bft) 0,00 %
22.03.2015 14:30 5,6 C 79 % 1019,6 hPa 0,0 l/m 3,2 km/h (1 Bft) O-NO 70 0 min 0,000 mm 1,0 UV-I 105 W/m 2,3 C 5,6 C 4,0 km/h (1 Bft) 0,00 %
22.03.2015 14:45 5,5 C 79 % 1019,8 hPa 0,0 l/m 6,5 km/h (2 Bft) O-NO 61 0 min 0,000 mm 1,0 UV-I 83 W/m 2,2 C 5,4 C 7,9 km/h (2 Bft) 0,00 %
22.03.2015 15:00 5,5 C 79 % 1019,9 hPa 0,0 l/m 9,4 km/h (2 Bft) NO 50 0 min 0,000 mm 1,0 UV-I 61 W/m 2,2 C 3,1 C 11,9 km/h (2 Bft) 0,00 %
22.03.2015 15:15 5,4 C 79 % 1019,8 hPa 0,0 l/m 8,3 km/h (2 Bft) O-NO 65 0 min 0,000 mm 0,0 UV-I 68 W/m 2,1 C 3,8 C 11,9 km/h (2 Bft) 0,00 %
22.03.2015 15:30 5,4 C 80 % 1020,0 hPa 0,0 l/m 0,7 km/h (0 Bft) O-SO 110 0 min 0,000 mm 1,0 UV-I 48 W/m 2,2 C 5,4 C 4,0 km/h (1 Bft) 0,00 %
22.03.2015 15:45 5,5 C 79 % 1019,7 hPa 0,0 l/m 1,4 km/h (1 Bft) NO 42 0 min 0,000 mm 1,0 UV-I 76 W/m 2,2 C 5,5 C 4,0 km/h (1 Bft) 0,00 %
22.03.2015 16:00 5,5 C 80 % 1019,6 hPa 0,0 l/m 1,8 km/h (1 Bft) N-NO 29 0 min 0,000 mm 0,0 UV-I 45 W/m 2,3 C 5,5 C 4,0 km/h (1 Bft) 0,00 %
22.03.2015 16:15 5,5 C 80 % 1019,6 hPa 0,0 l/m 6,8 km/h (2 Bft) O-SO 102 0 min 0,000 mm 0,0 UV-I 30 W/m 2,3 C 5,2 C 7,9 km/h (2 Bft) 0,00 %
22.03.2015 16:30 5,5 C 77 % 1019,7 hPa 0,0 l/m 10,4 km/h (2 Bft) O 96 0 min 0,000 mm 0,0 UV-I 21 W/m 1,8 C 2,4 C 11,9 km/h (2 Bft) 0,00 %
22.03.2015 16:45 5,5 C 78 % 1019,7 hPa 0,0 l/m 4,7 km/h (1 Bft) O 88 0 min 0,000 mm 0,0 UV-I 11 W/m 2,0 C 5,5 C 7,9 km/h (2 Bft) 0,00 %
22.03.2015 17:00 5,4 C 79 % 1019,5 hPa 0,0 l/m 4,7 km/h (1 Bft) S-SO 151 0 min 0,000 mm 0,0 UV-I 10 W/m 2,1 C 5,4 C 7,9 km/h (2 Bft) 0,00 %
22.03.2015 17:15 5,4 C 78 % 1019,7 hPa 0,0 l/m 11,9 km/h (2 Bft) O 95 0 min 0,000 mm 0,0 UV-I 7 W/m 1,9 C 1,3 C 15,8 km/h (3 Bft) 0,00 %
22.03.2015 17:30 5,3 C 78 % 1019,8 hPa 0,0 l/m 1,4 km/h (1 Bft) N-NO 27 0 min 0,000 mm 0,0 UV-I 5 W/m 1,8 C 5,3 C 4,0 km/h (1 Bft) 0,00 %
22.03.2015 17:45 5,3 C 79 % 1019,9 hPa 0,0 l/m 2,2 km/h (1 Bft) O 79 0 min 0,000 mm 0,0 UV-I 5 W/m 2,0 C 5,3 C 4,0 km/h (1 Bft) 0,00 %
22.03.2015 18:00 5,2 C 79 % 1019,8 hPa 0,0 l/m 4,0 km/h (1 Bft) O-NO 69 0 min 0,000 mm 0,0 UV-I 0 W/m 1,9 C 5,2 C 7,9 km/h (2 Bft) 0,00 %
22.03.2015 18:15 5,2 C 79 % 1020,2 hPa 0,0 l/m 9,4 km/h (2 Bft) O 86 0 min 0,000 mm 0,0 UV-I 0 W/m 1,9 C 2,7 C 11,9 km/h (2 Bft) 0,00 %
22.03.2015 18:30 5,1 C 80 % 1020,2 hPa 0,0 l/m 0,7 km/h (0 Bft) N-NW 328 0 min 0,000 mm 0,0 UV-I 0 W/m 1,9 C 5,1 C 4,0 km/h (1 Bft) 0,00 %
22.03.2015 18:45 5,0 C 80 % 1020,3 hPa 0,0 l/m 2,2 km/h (1 Bft) SO 129 0 min 0,000 mm 0,0 UV-I 0 W/m 1,8 C 5,0 C 7,9 km/h (2 Bft) 0,00 %
22.03.2015 19:00 5,0 C 80 % 1020,3 hPa 0,0 l/m 4,7 km/h (1 Bft) O 99 0 min 0,000 mm 0,0 UV-I 0 W/m 1,8 C 5,0 C 7,9 km/h (2 Bft) 0,00 %
22.03.2015 19:15 5,0 C 80 % 1020,4 hPa 0,0 l/m 1,8 km/h (1 Bft) O 95 0 min 0,000 mm 0,0 UV-I 0 W/m 1,8 C 5,0 C 4,0 km/h (1 Bft) 0,00 %
22.03.2015 19:30 5,0 C 79 % 1020,8 hPa 0,0 l/m 4,0 km/h (1 Bft) N 355 0 min 0,000 mm 0,0 UV-I 0 W/m 1,7 C 5,0 C 7,9 km/h (2 Bft) 0,00 %
22.03.2015 19:45 5,0 C 78 % 1020,4 hPa 0,0 l/m 0,4 km/h (0 Bft) S-SW 196 0 min 0,000 mm 0,0 UV-I 0 W/m 1,5 C 5,0 C 4,0 km/h (1 Bft) 0,00 %
22.03.2015 20:00 5,1 C 77 % 1020,7 hPa 0,0 l/m 0,0 km/h (0 Bft) O-NO 74 0 min 0,000 mm 0,0 UV-I 0 W/m 1,4 C 5,1 C 0,0 km/h (0 Bft) 0,00 %
22.03.2015 20:15 5,0 C 78 % 1020,7 hPa 0,0 l/m 2,9 km/h (1 Bft) O-SO 121 0 min 0,000 mm 0,0 UV-I 0 W/m 1,5 C 5,0 C 4,0 km/h (1 Bft) 0,00 %
22.03.2015 20:30 5,0 C 78 % 1020,9 hPa 0,0 l/m 9,0 km/h (2 Bft) O-NO 71 0 min 0,000 mm 0,0 UV-I 0 W/m 1,5 C 2,8 C 11,9 km/h (2 Bft) 0,00 %
22.03.2015 20:45 5,1 C 77 % 1021,0 hPa 0,0 l/m 3,2 km/h (1 Bft) NO 50 0 min 0,000 mm 0,0 UV-I 0 W/m 1,4 C 5,1 C 7,9 km/h (2 Bft) 0,00 %
22.03.2015 21:00 5,0 C 78 % 1020,7 hPa 0,0 l/m 2,9 km/h (1 Bft) O-NO 60 0 min 0,000 mm 0,0 UV-I 0 W/m 1,5 C 5,0 C 7,9 km/h (2 Bft) 0,00 %
22.03.2015 21:15 4,8 C 79 % 1021,0 hPa 0,0 l/m 5,8 km/h (2 Bft) O 91 0 min 0,000 mm 0,0 UV-I 0 W/m 1,5 C 4,8 C 7,9 km/h (2 Bft) 0,00 %
22.03.2015 21:30 4,6 C 80 % 1020,6 hPa 0,0 l/m 0,4 km/h (0 Bft) N 354 0 min 0,000 mm 0,0 UV-I 0 W/m 1,5 C 4,6 C 4,0 km/h (1 Bft) 0,00 %
22.03.2015 21:45 4,4 C 81 % 1020,7 hPa 0,0 l/m 10,4 km/h (2 Bft) O-NO 73 0 min 0,000 mm 0,0 UV-I 0 W/m 1,4 C 1,1 C 11,9 km/h (2 Bft) 0,00 %
22.03.2015 22:00 4,3 C 81 % 1020,6 hPa 0,0 l/m 0,4 km/h (0 Bft) NO 56 0 min 0,000 mm 0,0 UV-I 0 W/m 1,3 C 4,3 C 4,0 km/h (1 Bft) 0,00 %
22.03.2015 22:15 4,1 C 79 % 1020,4 hPa 0,0 l/m 1,4 km/h (1 Bft) O-NO 74 0 min 0,000 mm 0,0 UV-I 0 W/m 0,8 C 4,1 C 4,0 km/h (1 Bft) 0,00 %
22.03.2015 22:30 4,0 C 78 % 1020,6 hPa 0,0 l/m 6,8 km/h (2 Bft) O 100 0 min 0,000 mm 0,0 UV-I 0 W/m 0,5 C 3,6 C 7,9 km/h (2 Bft) 0,00 %
22.03.2015 22:45 4,1 C 77 % 1020,3 hPa 0,0 l/m 0,4 km/h (0 Bft) O 89 0 min 0,000 mm 0,0 UV-I 0 W/m 0,4 C 4,1 C 4,0 km/h (1 Bft) 0,00 %
22.03.2015 23:00 4,1 C 76 % 1020,4 hPa 0,0 l/m 4,3 km/h (1 Bft) O 97 0 min 0,000 mm 0,0 UV-I 0 W/m 0,3 C 4,1 C 7,9 km/h (2 Bft) 0,00 %
22.03.2015 23:15 3,9 C 76 % 1020,5 hPa 0,0 l/m 2,2 km/h (1 Bft) O 94 0 min 0,000 mm 0,0 UV-I 0 W/m 0,1 C 3,9 C 4,0 km/h (1 Bft) 0,00 %
22.03.2015 23:30 3,9 C 76 % 1020,5 hPa 0,0 l/m 10,4 km/h (2 Bft) O-SO 111 0 min 0,000 mm 0,0 UV-I 0 W/m 0,1 C 0,6 C 11,9 km/h (2 Bft) 0,00 %
22.03.2015 23:45 3,8 C 74 % 1020,1 hPa 0,0 l/m 10,4 km/h (2 Bft) O-SO 103 0 min 0,000 mm 0,0 UV-I 0 W/m -0,4 C 0,5 C 11,9 km/h (2 Bft) 0,00 %
_ Min-Zeit 07:15 23:45 00:00 - 00:00 - - - - - - 23:45 23:45 00:00 00:00
Minimum _ 3,5 C 74 % 1013,4 hPa - 0,0 km/h (0 Bft) - - - - - - -0,4 C 0,5 C 0,0 km/h (0 Bft) 0,00 %
_ Max-Zeit 00:00 04:00 20:45 00:30 17:15 - - 00:00 00:00 07:45 12:45 00:45 00:00 12:45 00:00
Maximum _ 6,2 C 91 % 1021,0 hPa 0,6 l/m 11,9 km/h
O (2 Bft)
- - 0 min 0,000 mm 1,0 UV-I 126 W/m 4,4 C 6,2 C 15,8 km/h
O-NO (3 Bft)
0,00 %
Durchschnitt _ 4,7 C 83 % 1018,6 hPa #7,8 l/m 2,6 km/h (1 Bft) O - #0 min. #0,000 mm 1,0 UV-I 60 W/m 2,2 C 4,4 C 4,7 km/h (1 Bft) 0,00 %